Location: Kikino
(54.4440°N, 112.0940°W)
Time: 19:31:29
(UTC+00:00)

A-11 Canister half - Pass Details

Date: 27 May 2024
Orbit: 1525 x 1683 km, 47.3° (Epoch: 12 June)

Event Time Altitude Azimuth Distance (km) Brightness Sun altitude
Rises 01:11:20 0° 170° (S) 4,664 11.3 19.3°
Reaches altitude 10° 01:17:36 10° 138° (SE) 3,704 10.6 18.4°
Maximum altitude 01:19:53 11° 124° (SE) 3,627 10.5 18.0°
Drops below altitude 10° 01:22:11 10° 109° (ESE) 3,727 10.5 17.7°
Sets 01:28:32 0° 78° (ENE) 4,753 11.0 16.8°
